Location: Pasadena, ca
(34.1243°N, 118.1037°W)
Time: 11:10:23
(UTC-07:00)

Envisat - Pass Details

Date: 13 October 2017
Orbit: 764 x 766 km, 98.2° (Epoch: 20 October)

Event Time Altitude Azimuth Distance (km) Brightness Sun altitude
Exits shadow 21:17:25 20° 327° (NNW) 1,736 5.2 -37.1°
Drops below altitude 10° 21:18:58 10° 335° (NNW) 2,306 5.9 -37.5°
Sets 21:21:22 0° 341° (NNW) 3,235 6.7 -37.9°
